Location: Borovka
(49.7741°N, 14.5280°E)
Time: 17:15:35
(UTC+00:00)

Thor Agena Rocket - Pass Details

Date: 13 February 2026
Orbit: 755 x 801 km, 99.1° (Epoch: 8 March)

Event Time Altitude Azimuth Distance (km) Brightness Sun altitude
Rises 17:36:58 0° 200° (SSW) 3,221 7.1 -13.4°
Reaches altitude 10° 17:39:41 10° 215° (SW) 2,307 6.5 -13.8°
Maximum altitude 17:43:43 23° 268° (W) 1,589 6.1 -14.5°
Drops below altitude 10° 17:47:49 10° 320° (NW) 2,345 6.5 -15.1°
Sets 17:50:37 0° 335° (NNW) 3,287 7.1 -15.6°
